[[{"header":{"parameterUnit":"m.s-1","parameterCategory":1,"la1":30.2991,"la2":30.254,"lo1":-89.0895,"lo2":-89.0444,"dy":0.0017,"dx":0.0017,"nx":28,"ny":28,"refTime":"2025-07-27T09:00:00:Z","depth":0,"parameterNumber":2,"parameterNumberName":"U-component_of_WINDS"},"data":[0,0,0,0,0,0,0,0,0,0,0,0,0,0,0,0,0,0,0,0,0,0,0,0,0,0,0,0,0,0,0,0,0,0,0,0,0,0,0,0,0,0,0,0,0,0,0,0,0,0,0,0,0,0,0,0,0,0,1.9816,1.9817,0,1.9909,1.991,1.9911,1.9875,1.9873,1.9871,1.9869,1.9969,1.9974,1.9978,0,0,0,0,0,0,0,0,0,0,0,0,0,1.9612,1.9616,1.9816,1.9817,1.9818,1.9909,1.991,1.9911,1.9875,1.9873,1.987,1.9868,1.9968,1.9973,1.9979,0,0,0,0,0,0,0,0,0,0,0,0,0,1.9702,1.9617,1.9815,1.9811,1.9811,1.9909,1.991,1.9912,1.9876,1.9873,1.9869,1.9866,1.9966,1.9973,1.9979,2.0088,0,0,2.0001,2.0004,0,0,0,0,0,0,0,0,1.9697,1.971,1.981,1.9811,1.9812,1.9877,1.9875,1.9971,1.9877,1.9852,1.9869,1.9865,1.9941,1.995,1.9975,2.0093,2.0097,2.0002,2.0006,2.0009,2.0011,0,0,0,0,0,0,0,1.9691,1.9706,1.9853,1.9812,1.9813,1.9806,1.9815,1.9893,1.9914,1.9854,1.9851,1.9862,1.9941,1.9968,1.9977,2.0099,2.0001,2.0008,2.0012,2.0015,2.0313,2.0317,0,0,0,0,0,0,1.9684,1.9701,1.985,1.9855,1.9745,1.9812,1.9823,1.9859,1.9913,1.9918,1.9865,1.986,1.9958,1.9969,1.9981,2.0113,2.0009,2.0015,2.002,2.031,2.0314,2.0318,0,0,0,0,0,0,1.968,1.9697,1.9846,1.9778,1.9796,1.9819,1.9861,1.9863,1.989,1.9921,1.9925,1.9889,1.9956,1.9971,2.0062,2.0116,2.0019,2.0025,2.0305,2.0311,2.0316,2.0378,0,0,0,0,0,0,1.9674,1.9696,1.9736,1.9779,1.98,1.9924,1.9864,1.9867,1.9902,1.9896,1.9945,1.995,1.9954,2.0052,2.0069,2.0124,2.0031,2.0301,2.0308,2.0315,2.0372,2.0385,2.0397,0,0,0,0,0,1.9667,1.975,1.9738,1.9756,1.985,1.9927,1.994,1.9942,1.9906,1.9948,1.9968,1.9948,2.0107,2.0061,2.0081,2.0139,2.0297,2.0306,2.0314,2.0366,2.0383,2.0397,0,0,0,0,0,0,1.9715,1.9756,1.9743,1.9842,1.9882,1.9921,1.9973,1.9959,2.0011,2.0004,2.0006,2.0017,2.0112,2.0134,2.0082,2.0248,2.0197,2.021,2.023,2.0246,2.0259,2.0252,2.0036,0,0,0,0,0,1.9737,1.9794,1.9828,1.9912,1.9933,1.995,1.9984,1.9982,2.0024,2.004,2.0067,2.011,2.017,2.0209,2.0265,2.0374,2.0386,2.0424,2.0437,2.0447,2.0458,2.052,2.0538,2.0346,2.0346,2.0346,0,0,1.9783,1.9813,1.9849,1.9923,1.9953,2.0015,1.9964,2.0031,2.0078,2.0051,2.0139,2.0161,2.0208,2.031,2.0356,2.0331,2.0514,2.0458,2.0466,2.0472,2.0531,2.0549,2.0565,2.0351,2.035,2.0349,0,0,1.9899,1.9926,2.0001,2.0032,2.0078,2.009,2.0108,2.015,2.0163,2.0251,2.0233,2.0289,2.0392,2.0427,2.0458,2.059,2.0574,2.0609,2.0676,2.0736,2.0751,2.0765,2.0814,2.0831,2.062,2.062,2.062,0,1.9951,2.0042,2.0041,2.0111,2.0145,2.0122,2.02,2.023,2.0293,2.0319,2.029,2.0419,2.0449,2.056,2.0592,2.0617,2.064,2.0604,2.0749,2.0762,2.0775,2.0822,2.084,2.0624,2.0623,2.0623,2.0623,0,2.0105,2.0169,2.0224,2.0284,2.0325,2.0397,2.041,2.0451,2.0447,2.0462,2.0554,2.0589,2.0654,2.068,2.0676,2.0791,2.0774,2.0747,2.0696,2.0797,2.0842,2.086,2.063,2.0628,2.0627,2.0626,0,0,2.0254,2.0314,2.0334,2.0363,2.0413,2.0463,2.0536,2.0598,2.0634,2.0679,2.0742,2.083,2.0806,2.0841,2.0842,2.0895,2.1,2.0862,2.0863,2.0888,2.1131,2.1152,2.1172,2.0989,2.0992,2.0995,2.1127,0,2.0376,2.0502,2.0504,2.0621,2.0681,2.0662,2.0726,2.0765,2.0781,2.0837,2.0855,2.0918,2.088,2.0902,2.0953,2.0976,2.1049,2.0966,2.105,2.1053,2.104,2.1195,2.1217,2.134,2.1144,2.1147,2.115,0,2.0534,2.0583,2.0706,2.0749,2.0775,2.0832,2.089,2.0942,2.0987,2.0996,2.1036,2.1029,2.1107,2.1052,2.116,2.1104,2.1139,2.1155,2.116,2.1169,2.1108,2.121,2.1379,2.1398,2.1176,2.1174,2.1172,0,2.0633,2.073,2.0816,2.0841,2.0893,2.0934,2.0958,2.0999,2.1037,2.1089,2.1114,2.1174,2.1208,2.1255,2.1266,2.1225,2.1375,2.1321,2.1386,2.1386,2.1419,2.1417,2.1598,2.1439,2.1439,2.1438,2.1438,0,2.0769,2.0845,2.0861,2.0915,2.1001,2.1004,2.1089,2.1111,2.1148,2.1207,2.1194,2.125,2.126,2.1319,2.1328,2.1417,2.1432,2.1442,2.1444,2.1444,2.1443,2.1468,2.146,2.1443,2.1442,2.1441,2.144,0,2.0894,2.0907,2.1001,2.1043,2.1055,2.1117,2.1154,2.1206,2.1221,2.1296,2.1314,2.1339,2.1408,2.1423,2.1505,2.1511,2.1617,2.161,2.1602,2.1602,2.1667,2.1661,2.1871,2.1899,2.172,2.1722,2.1723,0,2.098,2.1039,2.1087,2.1125,2.1151,2.1212,2.1251,2.1257,2.1298,2.1355,2.1401,2.1468,2.1522,2.1634,2.166,2.1723,2.1718,2.1788,2.1728,2.1727,2.1722,2.1719,2.1726,2.1799,2.1801,2.1803,2.1804,0,2.1133,2.1138,2.1193,2.1252,2.1298,2.1345,2.1389,2.1421,2.1434,2.1482,2.1551,2.1593,2.1677,2.1745,2.1808,2.1835,2.1823,2.1823,2.1841,2.1843,2.1837,2.1843,2.1635,2.1818,2.1817,2.1816,2.1815,2.1814,2.1243,2.1295,2.1338,2.14,2.1435,2.1477,2.1529,2.1551,2.1608,2.1676,2.1677,2.1754,2.18,2.1884,2.1915,2.1976,2.1955,2.1981,2.1989,2.1995,2.2002,2.1826,2.1988,2.1987,2.1987,2.1987,2.1986,0,2.1397,2.1424,2.1481,2.1544,2.1594,2.1577,2.1626,2.167,2.1737,2.178,2.1834,2.1915,2.1982,2.2013,2.2079,2.2123,2.2119,2.214,2.2138,2.2145,2.2017,2.1994,2.2142,2.2142,2.2142,2.2142,2.2142,2.2142,2.1483,2.157,2.158,2.1685,2.1712,2.1786,2.1816,2.1856,2.1891,2.1982,2.2036,2.2056,2.2096,2.2165,2.2226,2.2234,2.226,2.2284,2.2289,2.2169,2.2153,2.2138,2.2118,2.2289,2.2289,2.2413,2.2414,2.2415]},{"header":{"parameterUnit":"m.s-1","parameterCategory":1,"la1":30.2991,"la2":30.254,"lo1":-89.0895,"lo2":-89.0444,"dy":0.0017,"dx":0.0017,"nx":28,"ny":28,"refTime":"2025-07-27T09:00:00:Z","depth":0,"parameterNumber":3,"parameterNumberName":"V-component_of_WINDS"},"data":[0,0,0,0,0,0,0,0,0,0,0,0,0,0,0,0,0,0,0,0,0,0,0,0,0,0,0,0,0,0,0,0,0,0,0,0,0,0,0,0,0,0,0,0,0,0,0,0,0,0,0,0,0,0,0,0,0,0,0.8591,0.8593,0,0.8724,0.8726,0.8727,0.8667,0.8664,0.8661,0.8658,0.8793,0.88,0.8807,0,0,0,0,0,0,0,0,0,0,0,0,0,0.8283,0.8289,0.8591,0.8593,0.8595,0.8724,0.8726,0.8728,0.8668,0.8664,0.866,0.8656,0.8791,0.8799,0.8807,0,0,0,0,0,0,0,0,0,0,0,0,0,0.8417,0.8291,0.8591,0.858,0.8581,0.8724,0.8726,0.8728,0.8669,0.8664,0.8659,0.8654,0.8789,0.8798,0.8808,0.8969,0,0,0.8839,0.8843,0,0,0,0,0,0,0,0,0.8409,0.8428,0.858,0.8581,0.8582,0.8674,0.8667,0.8809,0.867,0.8635,0.8657,0.8652,0.8758,0.877,0.8806,0.8976,0.8982,0.884,0.8846,0.885,0.8853,0,0,0,0,0,0,0,0.84,0.8422,0.8644,0.8582,0.8584,0.8568,0.8582,0.8694,0.8723,0.8638,0.8634,0.865,0.8757,0.8796,0.8809,0.8984,0.884,0.8849,0.8855,0.8859,0.9288,0.9293,0,0,0,0,0,0,0.8391,0.8415,0.864,0.8648,0.8482,0.8578,0.8593,0.865,0.8721,0.8727,0.8655,0.8647,0.8782,0.8797,0.8813,0.9004,0.885,0.886,0.8865,0.9283,0.9289,0.9295,0,0,0,0,0,0,0.8385,0.8412,0.8634,0.853,0.8557,0.8588,0.8652,0.8655,0.8694,0.8734,0.8739,0.8689,0.8778,0.8799,0.893,0.9008,0.8864,0.8873,0.9276,0.9285,0.9292,0.9388,0,0,0,0,0,0,0.8376,0.841,0.8472,0.8532,0.8563,0.875,0.8657,0.8661,0.8711,0.8703,0.8768,0.8774,0.8776,0.8915,0.894,0.9019,0.8881,0.927,0.928,0.929,0.9378,0.9398,0.9416,0,0,0,0,0,0.8365,0.8495,0.8476,0.8503,0.8642,0.8755,0.8773,0.8773,0.8718,0.878,0.8805,0.8772,0.8995,0.8929,0.8957,0.904,0.9265,0.9277,0.9289,0.937,0.9395,0.9415,0,0,0,0,0,0,0.8444,0.8503,0.8482,0.8635,0.869,0.8745,0.8823,0.88,0.8872,0.8861,0.8858,0.8873,0.9008,0.9037,0.8962,0.9197,0.9121,0.914,0.9174,0.9197,0.9216,0.9206,0.8889,0,0,0,0,0,0.8479,0.8567,0.8613,0.8743,0.8772,0.8793,0.8842,0.8837,0.8894,0.8918,0.8952,0.9009,0.9091,0.9146,0.9225,0.9382,0.9394,0.9452,0.9471,0.9486,0.9502,0.9584,0.9609,0.9335,0.9335,0.9334,0,0,0.8553,0.8596,0.8651,0.876,0.8802,0.8891,0.8813,0.8912,0.8977,0.8933,0.9058,0.9085,0.9148,0.9292,0.9357,0.932,0.958,0.9502,0.9514,0.9521,0.9599,0.9625,0.9648,0.9343,0.9342,0.934,0,0,0.8733,0.8775,0.8886,0.8929,0.8994,0.9006,0.9033,0.9091,0.9107,0.9232,0.9199,0.9277,0.942,0.9465,0.9507,0.9699,0.967,0.9725,0.9823,0.9903,0.9925,0.9944,1.001,1.0034,0.974,0.9741,0.9741,0,0.8816,0.895,0.8947,0.9047,0.9094,0.9057,0.9168,0.9211,0.9298,0.9331,0.9288,0.9465,0.9505,0.9657,0.9703,0.9739,0.9768,0.9718,0.9922,0.9941,0.9959,1.0022,1.0047,0.9747,0.9746,0.9745,0.9745,0,0.9048,0.9141,0.9223,0.9306,0.9363,0.9469,0.9481,0.9539,0.9528,0.9544,0.9671,0.9717,0.9802,0.9838,0.9829,0.9988,0.9963,0.9922,0.9845,0.9991,1.005,1.0075,0.9756,0.9753,0.9752,0.975,0,0,0.9283,0.9361,0.9391,0.9427,0.9494,0.9565,0.9668,0.9751,0.9799,0.986,0.9944,1.0065,1.0025,1.0073,1.0068,1.0139,1.0284,1.0088,1.0089,1.0121,1.0459,1.0489,1.0517,1.0265,1.027,1.0274,1.0453,0,0.9465,0.9645,0.9644,0.981,0.9894,0.9858,0.9947,0.9997,1.0014,1.0087,1.0106,1.0191,1.0134,1.0162,1.023,1.0252,1.0352,1.024,1.0342,1.0346,1.0327,1.0549,1.0581,1.0748,1.0476,1.048,1.0483,0,0.9703,0.977,0.9944,0.9995,1.003,1.0111,1.0184,1.0256,1.031,1.0318,1.0369,1.0352,1.0455,1.0375,1.0515,1.0438,1.048,1.0497,1.0503,1.0512,1.0423,1.0562,1.0802,1.0826,1.052,1.0517,1.0515,0,0.9854,0.9988,1.0108,1.014,1.0204,1.026,1.0289,1.0339,1.0388,1.0452,1.0483,1.0559,1.0601,1.0659,1.0662,1.0605,1.0802,1.0724,1.0809,1.0809,1.0852,1.085,1.1101,1.0882,1.0882,1.0881,1.0881,0,1.0058,1.0165,1.0176,1.025,1.0368,1.0365,1.0482,1.0505,1.0549,1.0626,1.06,1.0672,1.0673,1.0746,1.075,1.0863,1.0882,1.089,1.0889,1.0892,1.089,1.0918,1.0906,1.0888,1.0886,1.0885,1.0884,0,1.0247,1.0259,1.0387,1.0435,1.045,1.0535,1.0576,1.0645,1.0659,1.0756,1.0779,1.0801,1.0885,1.0894,1.0994,1.0995,1.1131,1.1119,1.1113,1.111,1.1195,1.1186,1.1472,1.1508,1.1267,1.1269,1.1271,0,1.0375,1.0457,1.0513,1.0562,1.0594,1.0674,1.0723,1.0721,1.0773,1.0839,1.09,1.0982,1.1047,1.1184,1.1208,1.1282,1.1271,1.1366,1.1282,1.128,1.1269,1.1264,1.1271,1.1382,1.1385,1.1387,1.1388,0,1.0601,1.0602,1.0674,1.0747,1.0806,1.0864,1.0918,1.0959,1.0964,1.1023,1.1109,1.116,1.1259,1.134,1.1412,1.1441,1.1415,1.1414,1.1438,1.1441,1.1433,1.1436,1.1155,1.1408,1.1406,1.1405,1.1404,1.1403,1.0763,1.0832,1.0881,1.0961,1.1001,1.1051,1.1118,1.1139,1.1211,1.1291,1.1286,1.138,1.1429,1.1523,1.1557,1.1629,1.1597,1.1632,1.164,1.1649,1.1656,1.1422,1.1643,1.1642,1.1642,1.1641,1.1641,0,1.0985,1.1015,1.1088,1.1163,1.1225,1.1195,1.1252,1.1306,1.1389,1.1437,1.1501,1.1597,1.1675,1.1704,1.1778,1.183,1.182,1.185,1.1845,1.1852,1.1681,1.1653,1.1857,1.1857,1.1857,1.1857,1.1856,1.1856,1.1109,1.1223,1.123,1.1363,1.1391,1.1482,1.1517,1.1562,1.16,1.1709,1.1773,1.1791,1.1831,1.1907,1.1976,1.1982,1.201,1.2045,1.2046,1.1886,1.1864,1.1843,1.1816,1.2051,1.2051,1.2209,1.2211,1.2212]}]]